Wind_Speed
11 12 12 12 13 13 14 14 14 14 14 15 15 15 15 15 16 16 16 16 16 16 16 16 16 16 16 17 17 17 18 18 18 18 19 19 19 19 19 19 19 20 20
13 13 13 13 13 14 14 14 14 15 15 15 16 16 16 16 16 17 17 17 17 17 16 16 16 16 16 17 17 18 18 18 19 19 19 19 19 20 20 20 20 21 21
13 13 13 13 13 14 14 14 15 15 15 16 16 16 16 16 16 16 16 16 16 16 16 16 16 16 16 17 17 17 18 18 18 19 19 19 20 20 20 21 21 22 22
14 13 13 13 14 14 14 15 15 15 16 16 16 16 16 16 16 16 16 16 16 15 15 15 15 15 15 16 16 16 17 17 17 18 18 19 19 20 21 21 22 23 23
14 13 13 14 14 15 15 15 15 15 15 15 15 15 15 15 15 15 15 15 15 15 15 15 15 15 15 15 15 15 16 16 17 17 18 19 19 20 20 21 22 23 23
14 14 14 14 14 15 15 15 15 15 15 15 15 15 15 15 15 15 15 15 15 15 14 14 14 14 14 14 14 15 15 16 16 17 18 19 19 20 21 21 22 23 24
14 14 14 15 15 15 15 15 15 16 16 15 15 15 15 15 15 15 15 15 15 14 14 14 14 14 14 14 15 15 15 16 16 17 18 18 19 20 21 22 23 24 24
15 15 16 16 16 16 16 16 16 16 16 16 16 16 15 16 16 15 15 15 15 15 15 15 15 15 15 15 16 16 16 17 18 18 19 20 20 21 22 23 24 24 25
16 16 17 17 17 17 17 17 17 17 17 17 17 17 17 17 17 17 17 17 17 17 16 17 17 17 17 17 18 18 18 19 20 20 21 22 22 23 24 24 25 26 27
17 18 18 19 19 19 19 19 19 19 19 19 19 19 19 19 19 19 19 19 19 19 19 19 19 19 19 20 20 21 21 22 22 23 23 24 24 25 26 26 27 28 29
19 19 20 20 20 20 21 21 21 21 21 21 21 22 22 22 22 22 22 22 22 22 22 22 23 23 23 23 23 24 24 24 25 25 26 27 27 28 28 29 30 30 31
20 21 21 22 22 22 23 23 23 23 24 24 24 24 25 25 26 26 26 26 26 26 26 26 26 26 27 27 27 27 28 28 28 29 29 30 30 31 32 32 33 33 34
20 21 22 22 23 23 24 24 25 25 26 26 27 27 28 28 29 29 29 30 30 30 30 30 30 30 31 31 31 31 32 32 32 33 33 33 34 34 35 35 36 37 37
20 21 22 23 23 24 25 25 26 27 27 28 29 29 30 31 32 32 33 33 34 34 35 35 35 35 35 35 36 36 37 37 37 37 37 38 38 38 38 39 40 40 41
20 21 21 22 23 25 26 27 27 28 29 29 30 31 31 32 33 34 34 35 36 37 38 38 39 39 40 40 41 41 42 42 42 42 42 42 43 43 43 43 44 44 45
20 20 21 22 23 24 25 26 27 28 29 30 30 31 32 33 34 35 35 36 37 38 39 40 41 42 43 44 45 46 46 47 47 47 47 47 47 47 48 48 49 49 49
20 20 21 21 22 23 24 25 26 27 28 30 31 32 32 33 34 35 36 37 38 39 40 41 42 43 44 45 47 48 49 50 50 51 51 51 51 52 52 52 53 53 54
20 20 21 22 22 23 24 24 26 27 28 29 30 31 33 33 34 35 36 37 38 39 40 41 42 44 45 46 47 49 50 51 52 53 54 54 54 55 56 56 57 57 57
20 21 22 23 23 24 25 26 27 28 29 30 31 32 32 33 33 34 35 36 37 38 39 41 42 43 44 46 47 48 50 51 52 53 54 55 55 56 57 58 59 60 60
22 23 24 24 25 26 27 28 29 30 31 31 32 33 33 33 34 34 35 36 37 38 39 41 42 43 44 46 48 49 50 51 52 53 54 56 56 57 58 59 60 61 62
23 24 25 26 27 28 29 30 31 31 32 33 33 34 34 34 35 35 36 37 38 38 40 41 42 43 44 46 48 49 49 51 52 53 56 57 58 60 61 61 62 63 64
26 27 28 29 29 30 31 31 32 32 32 32 32 32 33 33 34 34 35 36 37 38 39 41 42 44 45 48 50 52 52 53 54 55 57 59 60 62 63 64 65 66 66
28 29 30 30 30 31 31 31 31 30 30 30 30 31 31 32 33 34 35 36 37 39 41 43 46 48 50 52 54 56 58 58 58 57 58 60 62 64 66 67 68 69 70
30 30 31 30 30 31 31 30 29 29 29 29 29 30 30 31 33 34 36 38 40 42 45 47 49 52 54 55 58 60 63 65 66 65 64 65 66 67 69 70 72 73 73
31 31 31 31 30 30 30 29 28 28 28 29 30 31 32 34 36 38 40 42 44 46 49 52 54 57 59 61 63 65 67 70 72 74 73 73 73 73 73 74 75 76 77
32 31 31 30 30 29 29 28 29 29 30 31 32 34 35 37 40 42 44 47 49 52 54 57 59 62 65 67 69 71 74 75 77 79 81 81 81 80 81 80 80 80 80
Wind_Direction
256 261 265 269 271 272 272 272 272 272 271 271 271 271 270 269 267 265 264 263 262 260 259 259 259 259 259 259 259 259 260 262 262 262 262 262 262 262 263 263 262 262 261
260 261 263 265 268 270 271 272 272 272 272 272 272 272 271 268 266 265 263 263 261 260 259 259 259 259 260 260 261 261 261 262 263 263 263 263 263 263 264 264 264 265 264
260 261 262 264 266 269 271 272 273 273 273 273 273 272 271 268 265 264 262 261 260 259 259 259 259 260 260 261 261 262 262 263 264 264 265 265 266 266 266 267 267 267 267
259 260 262 265 267 270 271 273 273 274 274 275 274 273 271 268 266 263 262 261 261 261 261 261 261 261 261 261 262 263 264 265 265 266 266 267 268 268 269 269 269 269 269
261 262 264 267 269 271 272 274 274 274 275 276 275 272 270 268 266 264 263 263 263 263 263 263 263 263 264 264 266 267 267 268 268 268 269 269 270 270 271 271 271 272 272
264 266 268 271 272 273 274 274 273 274 275 274 273 271 269 267 266 265 264 264 264 264 264 264 265 266 268 269 270 271 272 272 272 273 273 273 273 274 274 274 273 273 273
266 269 271 272 273 274 274 273 273 274 274 273 271 268 266 265 265 265 265 265 264 265 265 266 267 268 269 271 272 274 275 276 276 276 277 277 277 277 277 277 277 277 277
267 269 271 271 272 272 272 271 271 272 272 271 268 266 265 265 265 264 264 265 265 266 266 267 267 268 269 271 273 274 275 277 277 278 279 279 279 279 279 280 280 280 279
267 268 269 270 270 270 269 269 269 269 269 268 266 265 264 265 264 263 263 264 265 265 266 268 268 269 270 271 273 274 275 276 277 278 279 280 281 281 281 281 281 281 281
266 266 267 269 270 270 269 268 268 269 269 267 266 265 265 264 264 263 264 264 264 266 267 268 269 270 271 272 273 274 275 276 277 278 279 280 281 281 281 281 281 281 281
267 267 268 268 269 269 270 269 269 269 269 268 267 266 266 265 265 265 265 265 266 266 267 269 269 270 271 272 273 274 274 275 277 278 278 279 280 280 281 281 281 281 281
270 270 270 271 271 271 271 271 271 271 270 270 269 268 268 267 267 267 267 267 268 268 268 270 271 271 272 273 273 274 274 275 276 277 278 278 279 280 280 280 281 281 281
273 273 273 273 273 273 273 273 272 272 271 271 271 271 270 269 269 269 269 269 270 270 270 271 272 273 274 274 275 275 275 276 276 277 278 278 279 279 280 280 280 281 281
277 276 275 274 274 274 274 274 274 274 273 273 273 273 272 272 271 271 271 272 272 272 272 273 273 274 274 275 275 276 276 277 277 278 278 279 279 280 280 280 280 281 281
280 279 278 277 277 277 277 277 277 276 276 276 275 275 274 274 274 274 274 274 274 274 274 275 275 275 275 275 276 276 277 277 278 278 278 279 279 280 280 280 280 280 280
282 282 282 281 281 280 280 280 280 280 279 278 277 277 276 276 275 275 275 275 275 275 276 276 276 276 276 276 276 276 276 277 277 278 278 278 278 279 279 279 279 279 279
285 286 286 286 285 285 284 284 283 283 282 281 281 280 280 279 279 278 278 278 278 278 278 278 277 277 276 276 276 276 276 276 277 277 277 277 277 277 277 277 277 277 277
288 288 289 290 290 289 289 288 287 286 286 285 284 283 282 282 281 281 281 280 280 280 280 279 278 278 277 277 277 276 276 276 276 276 276 276 276 276 275 275 275 275 276
291 292 292 293 293 293 292 291 290 289 288 288 287 286 285 285 284 284 283 282 281 281 280 280 279 279 278 278 277 277 278 278 278 278 278 277 276 275 275 275 274 275 275
295 295 295 295 295 294 293 292 292 291 290 289 288 287 287 286 285 284 284 283 283 283 283 282 282 281 280 280 279 279 279 279 279 279 278 278 277 276 276 275 275 275 275
296 297 297 296 295 295 293 293 292 291 290 290 289 288 287 286 286 286 285 285 285 285 284 284 284 284 283 282 282 281 281 280 280 279 279 279 278 278 277 276 276 275 275
297 297 297 297 296 295 294 293 292 291 291 290 289 288 287 287 286 286 287 287 287 287 287 286 286 286 286 285 285 284 282 281 280 280 279 279 279 278 278 277 276 275 275
297 297 297 297 296 296 295 294 293 292 291 290 289 288 288 288 289 289 289 289 289 289 289 289 290 290 289 289 288 288 287 285 283 282 280 280 279 279 279 278 277 276 275
297 298 297 296 296 296 295 294 293 292 292 291 290 290 290 290 291 291 292 292 292 292 292 292 292 292 291 291 290 289 289 288 287 285 283 281 279 279 278 278 277 276 276
297 297 297 296 295 293 292 291 291 291 291 291 292 292 292 292 293 294 294 294 294 294 294 293 293 292 292 291 291 290 289 289 288 288 286 284 282 280 278 277 276 276 275
297 297 297 295 293 290 289 289 290 290 290 291 292 293 293 294 295 295 295 295 295 295 294 294 294 293 293 292 291 291 290 289 288 287 286 285 284 282 280 279 277 275 274
Height
5891 5891 5890 5891 5890 5890 5890 5890 5890 5889 5889 5889 5888 5888 5888 5887 5886 5886 5885 5885 5884 5884 5883 5883 5882 5882 5882 5881 5881 5881 5881 5881 5880 5880 5880 5880 5880 5880 5880 5880 5880 5880 5880
5889 5889 5889 5889 5889 5889 5888 5888 5888 5888 5887 5887 5886 5886 5885 5885 5884 5884 5883 5882 5882 5881 5881 5880 5880 5880 5879 5879 5878 5878 5878 5878 5878 5878 5877 5877 5877 5877 5877 5877 5877 5877 5877
5887 5887 5887 5887 5887 5887 5886 5886 5886 5885 5885 5884 5884 5883 5883 5882 5882 5881 5881 5880 5880 5879 5879 5878 5878 5877 5877 5876 5876 5876 5875 5875 5875 5875 5875 5875 5874 5874 5874 5874 5874 5874 5874
5886 5885 5885 5885 5885 5885 5884 5884 5884 5883 5883 5882 5881 5881 5880 5880 5880 5879 5879 5878 5877 5877 5876 5876 5875 5875 5874 5874 5874 5873 5873 5873 5873 5873 5872 5872 5872 5872 5871 5871 5871 5871 5871
5884 5884 5884 5883 5883 5883 5882 5882 5881 5881 5880 5880 5879 5879 5878 5878 5877 5877 5876 5876 5875 5875 5874 5874 5873 5872 5872 5872 5871 5871 5871 5870 5870 5870 5870 5869 5869 5869 5868 5868 5868 5867 5867
5882 5882 5882 5881 5881 5881 5880 5879 5879 5878 5878 5877 5877 5876 5876 5876 5875 5875 5874 5873 5873 5872 5872 5871 5871 5870 5870 5869 5869 5868 5868 5868 5867 5867 5867 5866 5866 5865 5865 5865 5864 5864 5864
5881 5880 5880 5879 5879 5878 5878 5877 5876 5876 5875 5875 5874 5874 5874 5873 5873 5872 5872 5871 5870 5870 5869 5869 5868 5868 5867 5867 5866 5866 5865 5865 5864 5864 5863 5863 5862 5862 5861 5861 5860 5860 5859
5879 5878 5878 5877 5876 5876 5875 5874 5874 5873 5872 5872 5872 5871 5871 5871 5870 5870 5869 5868 5868 5867 5867 5866 5866 5865 5865 5864 5863 5863 5862 5862 5861 5860 5860 5859 5859 5858 5858 5857 5856 5856 5855
5876 5876 5875 5874 5874 5873 5872 5872 5871 5870 5869 5869 5869 5868 5868 5868 5867 5867 5866 5866 5865 5864 5864 5863 5863 5862 5861 5861 5860 5860 5859 5858 5858 5857 5856 5856 5855 5854 5854 5853 5852 5852 5851
5874 5873 5872 5871 5871 5870 5869 5868 5868 5867 5866 5866 5865 5865 5865 5864 5864 5863 5863 5862 5862 5861 5860 5860 5859 5858 5858 5857 5857 5856 5855 5854 5854 5853 5852 5852 5851 5850 5849 5849 5848 5847 5846
5871 5870 5869 5868 5867 5867 5866 5865 5864 5863 5863 5862 5862 5861 5861 5860 5860 5859 5859 5858 5858 5857 5856 5855 5855 5854 5853 5853 5852 5851 5851 5850 5849 5848 5848 5847 5846 5845 5844 5843 5843 5842 5841
5868 5867 5866 5865 5864 5863 5862 5861 5860 5859 5859 5858 5857 5857 5856 5856 5855 5855 5854 5854 5853 5852 5851 5851 5850 5849 5848 5848 5847 5846 5845 5844 5843 5843 5842 5841 5840 5839 5838 5837 5836 5835 5834
5864 5863 5862 5861 5860 5859 5858 5857 5856 5855 5854 5853 5853 5852 5851 5851 5850 5849 5849 5848 5847 5846 5846 5845 5844 5843 5842 5841 5840 5840 5839 5838 5837 5836 5835 5834 5833 5832 5831 5830 5829 5828 5826
5860 5859 5858 5857 5856 5855 5853 5852 5851 5850 5849 5848 5847 5846 5845 5845 5844 5843 5842 5842 5841 5840 5839 5838 5837 5837 5836 5834 5833 5832 5831 5830 5829 5828 5828 5827 5825 5824 5823 5822 5820 5819 5817
5856 5855 5854 5853 5852 5850 5849 5847 5846 5845 5844 5843 5841 5840 5839 5838 5837 5836 5835 5834 5833 5832 5831 5831 5830 5829 5828 5827 5825 5824 5822 5821 5820 5819 5818 5817 5816 5815 5813 5812 5810 5809 5807
5852 5851 5850 5849 5847 5846 5844 5843 5841 5840 5838 5837 5835 5834 5833 5831 5830 5829 5828 5827 5825 5824 5823 5822 5821 5820 5819 5817 5816 5814 5813 5811 5810 5809 5808 5807 5806 5804 5802 5801 5799 5797 5796
5847 5846 5845 5844 5842 5841 5839 5838 5836 5834 5832 5831 5829 5828 5826 5825 5823 5822 5820 5819 5817 5816 5814 5813 5811 5810 5808 5807 5805 5803 5802 5800 5799 5797 5796 5795 5794 5792 5790 5788 5786 5784 5783
5843 5841 5840 5839 5837 5836 5834 5832 5830 5828 5827 5825 5823 5821 5819 5818 5816 5814 5813 5811 5809 5807 5805 5803 5801 5800 5798 5796 5794 5792 5790 5788 5787 5785 5783 5782 5780 5779 5776 5774 5772 5770 5769
5838 5837 5835 5833 5832 5830 5828 5826 5824 5822 5820 5818 5816 5814 5812 5810 5808 5806 5804 5802 5800 5798 5795 5793 5791 5789 5787 5785 5782 5780 5778 5776 5774 5772 5770 5768 5766 5764 5762 5760 5758 5756 5754
5833 5831 5830 5828 5826 5824 5822 5820 5818 5816 5814 5811 5809 5807 5805 5803 5800 5798 5796 5793 5791 5789 5786 5783 5781 5778 5776 5773 5771 5769 5767 5764 5762 5760 5757 5754 5752 5749 5747 5745 5743 5741 5739
5828 5826 5824 5822 5820 5818 5816 5813 5811 5809 5806 5804 5801 5799 5796 5794 5792 5789 5787 5784 5782 5779 5776 5773 5770 5768 5765 5762 5759 5757 5755 5753 5750 5747 5743 5740 5738 5735 5732 5730 5727 5725 5724
5822 5820 5818 5816 5814 5811 5808 5806 5803 5801 5798 5796 5793 5790 5788 5785 5783 5780 5778 5775 5772 5770 5766 5763 5760 5757 5754 5750 5746 5743 5742 5741 5737 5735 5730 5726 5723 5719 5716 5713 5711 5709 5707
5816 5814 5812 5809 5806 5804 5801 5798 5795 5793 5790 5788 5785 5782 5780 5777 5774 5772 5769 5766 5763 5760 5757 5753 5749 5746 5742 5738 5733 5728 5725 5723 5721 5721 5717 5713 5707 5703 5700 5696 5693 5690 5688
5810 5807 5805 5802 5799 5796 5794 5791 5788 5785 5783 5780 5777 5775 5772 5769 5766 5763 5760 5757 5754 5750 5746 5742 5737 5733 5729 5725 5720 5715 5709 5704 5700 5699 5699 5696 5692 5688 5683 5678 5675 5671 5668
5803 5800 5798 5795 5792 5789 5786 5784 5781 5778 5776 5773 5770 5767 5764 5761 5758 5755 5751 5747 5743 5739 5735 5730 5725 5720 5715 5710 5704 5699 5694 5688 5681 5676 5676 5674 5671 5668 5664 5660 5655 5652 5648
5796 5793 5790 5788 5785 5782 5779 5777 5774 5771 5769 5766 5763 5759 5756 5752 5749 5745 5741 5737 5732 5728 5723 5717 5712 5706 5700 5694 5688 5681 5675 5669 5664 5656 5652 5650 5646 5644 5640 5637 5634 5630 5626